Temperature
16 16 16 16 13 11 12 13 14 14 15 15 15 15 13 13 14 13 12 13 13 13 13 14 14 14 14 15 15 15 15 15 15 15 15 15 14 15 15 14 14 14 14 14 14 14 14 14 14
15 15 16 15 11 11 12 13 13 14 15 15 15 14 13 12 12 12 12 12 13 13 13 13 13 14 14 14 14 15 15 15 15 14 14 14 14 14 14 14 14 14 14 14 14 14 14 14 14
15 15 15 11 11 12 13 13 13 14 15 15 13 13 12 11 11 12 12 12 13 13 13 13 13 13 14 14 14 14 14 14 14 14 14 14 14 14 14 14 14 14 14 14 14 14 14 14 13
15 15 14 10 12 12 12 12 13 13 14 13 12 11 11 11 11 11 12 12 13 13 13 13 13 13 13 14 14 14 14 14 14 14 14 14 14 14 14 14 14 14 14 14 14 14 14 13 13
14 14 10 10 11 12 12 13 13 13 13 12 12 10 10 11 11 11 12 12 13 13 13 13 13 13 13 13 13 14 14 14 14 14 13 13 13 14 14 13 13 13 13 13 13 13 13 13 13
14 11 10 10 11 11 11 12 12 11 11 11 11 9 9 10 11 11 11 11 12 12 12 12 12 13 13 13 13 13 13 13 13 13 13 13 13 13 13 13 13 13 13 13 13 13 13 13 13
12 9 9 10 10 11 11 12 11 10 10 10 10 9 8 9 10 10 11 11 11 12 12 12 12 12 12 12 13 13 13 13 13 13 13 13 13 13 13 13 13 13 13 13 13 13 13 13 13
12 8 9 9 10 10 10 11 10 10 9 10 10 8 8 9 9 9 10 10 11 11 11 11 11 12 12 12 12 12 12 12 13 13 13 13 13 12 12 12 13 13 12 12 12 12 12 12 12
12 8 8 9 10 9 10 10 10 10 9 9 9 9 9 8 9 9 9 10 10 10 10 11 11 11 11 11 12 12 12 12 12 12 12 12 12 12 12 12 12 12 12 12 12 12 12 12 12
10 7 8 9 9 9 9 9 9 9 8 8 8 8 8 8 8 9 9 9 10 10 10 10 10 11 11 11 11 11 11 12 12 12 12 12 12 12 12 12 12 12 12 12 12 12 12 12 12
8 7 8 9 9 9 8 8 8 8 7 7 7 7 7 8 8 8 8 9 9 9 9 10 10 10 10 10 11 11 11 11 11 11 11 11 11 11 11 11 11 11 11 11 11 11 12 11 11
7 7 8 8 9 8 8 8 7 7 7 8 7 7 7 7 7 7 8 8 8 9 9 9 9 9 10 10 10 10 10 11 11 11 11 11 11 11 11 11 11 11 11 11 11 11 11 11 11
6 7 7 8 8 7 7 7 7 6 7 7 7 7 7 7 7 7 7 7 8 8 9 9 9 9 9 9 10 10 10 10 10 10 10 11 11 11 11 10 11 11 11 11 10 11 11 11 11
6 7 7 7 7 7 6 6 6 6 7 6 6 6 6 6 6 6 6 7 7 8 8 8 8 8 9 9 9 9 9 10 10 10 10 10 10 10 10 10 10 10 10 10 10 10 10 10 10
7 6 6 6 7 7 6 5 5 6 6 5 5 5 6 6 6 6 6 6 7 7 7 7 8 8 8 8 8 9 9 9 9 9 9 10 10 10 10 10 10 10 10 10 10 10 10 10 10
6 5 5 6 6 6 6 5 5 6 5 5 5 5 5 5 5 5 5 6 6 6 6 7 7 7 7 8 8 8 8 8 9 9 9 9 9 9 9 9 9 9 9 9 9 9 9 9 9
4 4 4 5 5 5 5 4 4 5 5 4 4 4 5 5 5 5 5 5 6 6 6 6 6 6 7 7 7 7 8 8 8 8 8 9 9 9 9 9 9 9 9 9 9 9 9 9 9
4 3 4 4 4 4 4 4 4 4 4 4 3 4 4 4 4 4 5 5 5 5 5 5 6 6 6 6 6 7 7 7 7 8 8 8 8 8 8 8 8 8 8 8 8 8 8 8 8
4 4 3 4 4 4 3 3 3 3 3 3 3 3 3 3 4 4 4 4 5 5 5 5 5 5 5 6 6 6 6 6 7 7 7 7 7 7 8 8 8 8 8 8 8 8 8 8 8
4 3 3 3 4 4 3 3 3 2 2 2 2 2 2 3 3 3 4 4 4 4 4 5 5 5 5 5 5 5 6 6 6 6 7 7 7 7 7 7 7 7 8 7 7 7 7 7 7
4 3 3 3 3 3 3 3 2 2 2 2 2 2 2 2 2 2 3 3 3 4 4 4 4 4 5 5 5 5 5 5 5 5 6 6 6 6 7 7 7 7 7 7 7 7 7 7 7
3 4 3 3 2 1 2 2 2 1 1 1 1 1 1 1 2 2 2 2 3 3 3 3 4 4 4 4 4 4 4 5 5 5 5 5 5 6 6 6 6 7 7 7 7 7 7 7 7
3 3 3 3 1 1 1 1 2 1 1 1 0 0 1 1 1 1 2 2 2 2 2 3 3 3 3 3 4 4 4 4 4 4 4 5 5 5 5 6 6 6 6 6 6 6 6 6 7
2 2 2 1 0 1 1 1 1 0 0 0 -0 -0 -0 0 1 1 1 2 2 2 2 2 2 2 3 3 3 3 3 3 3 4 4 4 4 4 5 5 5 5 5 6 6 6 6 6 6
2 1 1 1 0 1 1 1 1 0 -0 -0 -0 -0 -0 -0 0 0 1 1 1 1 1 1 1 2 2 2 2 2 3 3 3 3 3 4 4 4 4 5 5 5 5 5 5 5 5 5 5
1 1 1 2 1 1 0 0 0 -0 -0 -0 -0 -0 -1 -1 -0 0 0 1 1 1 1 1 1 1 1 2 2 2 2 2 3 3 3 3 3 4 4 4 4 4 4 5 5 5 5 5 5
1 -0 0 -0 -1 -1 -1 -1 -0 -1 -1 -1 -1 -1 -1 -1 -1 -0 -0 0 0 0 0 0 0 1 1 1 1 1 1 2 2 2 2 2 3 3 3 4 4 4 4 4 4 4 4 4 4
0 -0 -1 -1 0 0 -0 -0 -0 -1 -1 -2 -2 -2 -1 -1 -1 -1 -1 -0 -0 -0 -0 -0 0 0 0 0 0 0 1 1 1 2 2 2 2 2 2 3 3 3 3 3 3 4 4 4 4
-1 -1 -1 -1 -1 -0 -0 0 -1 -1 -2 -2 -2 -2 -2 -2 -1 -1 -1 -1 -1 -0 -0 -0 -1 -0 -0 -0 -0 0 0 0 1 1 1 1 1 2 2 2 2 3 3 3 3 3 3 3 3
-1 -2 -2 -1 -1 -2 -1 -0 -1 -2 -2 -2 -2 -2 -2 -2 -2 -2 -1 -1 -1 -1 -1 -1 -1 -1 -1 -1 -1 -1 -0 -0 0 0 0 1 1 1 1 2 2 2 2 2 2 2 3 3 3
Wind_Speed
14 10 2 4 5 4 2 3 2 0 1 1 2 5 6 4 2 3 1 2 3 2 2 3 5 6 6 7 8 9 10 10 10 11 11 12 12 13 13 13 14 14 15 15 16 16 17 17 17
9 3 4 5 4 2 3 3 2 2 2 2 3 4 5 4 3 4 1 2 4 3 3 3 4 6 6 7 8 8 9 10 10 10 11 11 12 13 13 13 14 14 14 15 15 15 15 15 16
6 2 4 4 4 6 5 2 3 1 1 3 3 4 3 2 2 1 0 2 5 5 5 4 5 6 7 7 8 8 9 9 10 10 10 11 12 12 13 13 13 14 14 15 15 14 14 15 15
3 4 4 3 4 4 4 3 2 0 3 4 4 4 3 3 1 1 3 5 5 5 6 6 7 6 7 7 8 8 9 9 9 9 9 10 11 12 13 13 13 14 14 14 14 14 14 13 13
4 4 4 0 4 3 2 2 1 0 1 3 3 3 2 4 5 5 5 5 5 4 6 6 8 8 7 8 8 8 8 9 9 9 9 10 11 12 12 12 13 13 14 14 13 13 13 13 13
4 4 4 3 4 2 1 2 1 2 1 2 3 3 1 3 6 4 4 4 5 5 5 6 7 8 9 8 8 8 8 8 8 9 9 9 10 11 11 12 13 13 13 13 12 12 12 12 13
4 4 4 4 3 2 1 2 3 2 2 2 2 3 1 2 3 3 4 4 5 6 6 6 6 7 8 9 8 8 8 8 8 8 9 9 10 11 12 12 12 12 12 12 12 11 12 12 12
4 4 2 2 3 3 2 1 2 3 1 2 2 3 2 2 2 4 5 5 4 5 5 5 5 6 6 7 7 8 8 8 7 8 8 9 10 10 12 12 11 12 12 12 11 11 12 12 12
3 3 3 4 3 2 1 1 2 1 2 2 2 1 2 1 3 5 5 5 4 4 4 4 5 5 5 5 6 7 7 7 8 8 9 9 8 9 9 11 11 11 11 11 11 11 11 11 11
4 3 5 2 2 2 1 1 1 2 2 1 2 3 2 3 4 4 4 3 3 2 2 4 4 4 4 4 4 5 5 6 6 7 8 8 8 8 8 10 11 11 10 10 10 10 10 10 9
2 4 3 1 1 2 1 1 1 2 2 3 2 3 3 3 2 2 2 2 1 1 1 2 3 4 4 3 3 4 4 5 5 6 7 8 8 8 7 7 8 9 8 7 7 8 8 8 8
2 1 1 1 1 0 0 0 1 1 4 3 3 4 3 3 2 1 0 1 1 1 1 1 3 3 3 3 3 3 3 3 3 4 6 7 5 5 5 5 6 6 6 5 5 6 7 8 8
1 1 1 1 2 1 1 1 1 3 3 1 2 2 3 2 1 1 0 0 1 1 1 1 2 2 2 2 2 2 2 2 3 4 5 5 5 4 4 4 5 5 5 5 5 5 6 6 7
1 1 2 2 2 1 0 3 1 4 2 1 1 1 2 3 2 0 1 1 1 1 1 1 1 2 2 2 2 2 2 2 3 3 4 5 4 4 4 3 4 4 4 5 5 5 5 5 5
2 2 4 3 1 1 1 4 3 4 2 1 1 1 2 2 2 2 1 1 1 1 1 1 0 2 2 1 1 2 2 2 2 3 4 4 4 4 4 3 3 3 4 5 5 5 6 5 4
2 3 2 4 1 1 1 5 4 2 2 1 2 2 2 1 0 1 0 1 1 1 1 1 1 1 1 1 1 2 2 2 2 2 3 4 4 4 4 3 2 3 4 5 4 3 3 4 3
4 2 3 5 2 1 0 6 5 2 1 2 2 2 1 1 2 2 1 1 1 1 1 1 2 1 0 0 1 2 2 2 2 3 3 3 4 4 4 3 2 4 4 3 3 3 3 4 4
2 3 3 5 3 2 4 7 6 4 2 3 2 1 1 0 2 2 2 2 2 1 1 1 2 1 1 1 1 2 2 2 2 3 2 3 4 4 4 3 3 4 3 3 3 3 3 4 4
3 3 5 6 3 3 5 7 7 5 2 2 2 1 0 1 2 2 2 2 2 2 2 1 1 2 1 1 1 2 2 1 1 2 3 3 3 4 4 3 3 3 3 4 4 3 4 3 3
1 3 3 5 3 3 5 7 5 3 3 2 2 2 1 1 2 3 3 3 2 2 1 1 1 2 1 0 1 2 2 2 2 2 2 3 3 3 4 3 3 2 3 3 4 4 3 2 3
2 3 4 5 6 3 3 5 3 3 2 2 2 1 1 1 0 2 2 3 3 3 2 1 1 1 2 1 0 0 0 0 1 1 1 2 2 2 3 4 4 3 3 4 4 4 3 4 2
4 3 4 4 3 4 1 4 5 4 4 5 4 3 2 2 1 1 1 2 3 3 2 2 2 2 2 2 1 2 1 1 1 1 1 1 1 1 2 3 4 3 3 4 4 3 3 4 3
4 5 4 3 2 3 2 2 6 2 4 7 5 4 3 2 1 1 1 1 2 2 2 3 3 3 3 3 2 1 1 1 1 1 2 1 1 2 1 2 3 3 2 3 4 4 4 3 3
3 3 2 2 2 3 3 3 5 2 4 6 5 4 3 3 1 1 1 1 2 2 2 3 3 4 4 4 3 1 0 1 1 2 2 1 1 0 1 1 2 2 2 3 4 4 4 3 2
4 4 4 5 3 5 2 2 6 4 5 4 4 4 4 2 1 1 1 1 2 2 2 3 3 3 3 3 3 1 1 2 2 2 2 2 1 1 1 0 1 2 2 3 3 4 4 4 4
1 3 3 3 4 5 4 4 5 3 5 3 2 2 2 2 1 1 1 1 1 2 2 2 2 3 3 3 3 2 1 1 1 1 1 2 2 2 1 1 1 1 2 2 3 3 3 3 4
1 1 2 2 1 4 6 6 6 2 5 5 5 4 4 3 3 2 2 1 1 2 2 2 1 2 3 3 2 1 1 0 1 1 1 1 1 1 1 1 1 1 1 2 2 3 3 3 3
2 2 3 2 1 4 6 5 4 5 6 5 5 5 5 4 4 3 2 2 2 2 2 2 1 2 2 2 2 1 0 0 1 0 1 1 2 1 1 1 1 2 2 1 3 3 3 3 3
1 1 1 2 2 2 5 7 3 4 4 5 6 6 5 5 4 3 3 3 2 2 2 2 2 2 2 2 2 1 1 0 1 1 1 2 2 2 2 2 2 3 3 2 4 4 4 4 3
3 3 4 2 3 3 4 8 3 3 4 4 6 6 6 5 5 4 3 3 2 3 3 3 2 2 2 2 2 2 1 0 1 2 2 2 2 2 2 2 2 3 3 3 4 5 4 5 5
Wind_Direction
329 331 40 56 62 60 225 255 227 291 334 340 62 90 100 95 106 140 162 74 51 54 58 81 81 83 84 96 101 103 102 104 110 109 112 113 111 110 109 109 108 107 107 105 104 102 100 99 98
330 346 54 65 104 158 249 250 235 223 204 127 58 67 76 73 61 88 54 25 71 70 60 82 85 88 86 94 107 110 109 105 108 112 111 115 113 112 111 110 109 110 109 109 107 104 102 100 99
332 39 82 85 133 187 207 222 215 233 65 74 59 48 81 85 70 74 43 78 77 61 52 60 79 91 90 93 103 113 110 107 104 109 111 114 116 115 113 111 110 111 110 110 108 107 103 100 98
45 48 62 91 196 218 195 227 222 232 25 42 91 67 52 33 41 75 101 91 87 59 53 59 65 84 91 95 101 110 111 109 107 106 112 114 115 118 116 113 113 112 112 111 110 108 104 101 100
57 81 82 121 233 239 234 255 201 172 57 28 75 92 51 359 49 74 85 93 97 68 56 64 65 68 80 90 100 100 106 110 109 108 110 115 116 117 119 118 116 114 113 112 112 109 107 104 104
58 76 113 199 226 241 321 341 52 61 49 23 58 92 136 18 53 65 86 89 92 86 64 67 68 65 68 76 86 91 96 106 109 107 107 110 115 118 120 122 121 118 116 115 114 110 108 109 107
104 106 159 185 204 241 325 11 71 69 49 359 37 102 127 5 39 70 84 89 78 78 66 57 61 67 69 69 78 83 87 94 103 104 104 106 111 119 121 120 124 123 120 118 114 110 107 108 108
118 106 143 189 196 225 323 16 68 68 63 354 59 128 192 278 3 66 74 84 84 68 59 51 51 57 64 71 77 80 82 84 93 98 100 102 109 118 124 122 122 125 124 121 117 112 107 105 105
85 93 184 204 189 219 3 30 353 60 94 38 36 134 191 134 65 71 69 58 67 58 44 39 38 43 55 71 78 82 82 79 85 88 90 91 99 108 122 124 122 126 127 126 121 114 105 101 102
79 159 208 219 174 160 57 50 334 45 43 12 19 30 83 90 84 85 88 85 70 53 39 32 26 32 51 70 75 79 84 76 80 88 91 87 90 99 110 121 119 123 128 128 123 113 105 99 97
91 169 198 272 168 124 95 347 344 146 260 236 212 170 128 100 95 97 113 129 149 149 71 44 27 31 44 49 67 65 75 76 76 89 91 91 87 92 100 106 111 117 119 119 118 110 104 101 99
81 236 211 265 330 32 205 262 347 221 236 231 188 166 147 137 150 137 128 144 99 44 13 42 39 37 36 44 54 63 67 77 79 90 97 97 92 92 95 100 107 111 115 113 113 110 106 102 102
98 223 331 328 16 356 41 267 253 259 249 179 117 137 160 169 186 193 180 320 72 42 3 347 38 49 47 54 55 61 67 86 95 102 100 105 104 108 101 108 108 105 109 115 116 113 105 102 101
147 41 320 306 304 325 43 291 225 243 200 134 138 204 195 188 187 57 346 330 327 344 350 344 51 48 61 70 61 61 60 87 94 100 101 107 112 115 115 108 105 105 111 119 124 122 110 105 107
73 27 341 304 277 261 35 311 238 228 196 181 209 233 234 215 188 178 223 256 251 279 344 357 136 55 67 74 90 83 64 72 88 112 111 109 116 125 125 114 112 119 123 114 115 110 108 107 105
34 35 339 306 348 344 94 267 274 231 140 200 227 258 271 262 175 162 232 309 336 68 35 4 12 59 86 75 97 96 83 88 71 111 122 122 125 131 130 122 124 137 131 120 126 128 117 117 115
37 357 294 302 315 352 244 264 282 271 193 243 256 256 267 337 9 7 18 352 11 42 79 28 11 23 113 126 128 107 98 85 89 94 111 133 134 131 131 125 129 141 127 117 131 131 134 130 123
291 293 278 281 294 321 266 262 281 288 239 241 265 265 241 347 337 349 10 4 12 17 51 46 9 2 15 114 100 99 97 80 69 95 96 133 139 137 133 126 127 131 128 135 132 139 137 138 136
224 247 273 274 282 301 260 272 279 277 265 268 274 275 232 317 323 4 20 22 19 23 42 50 17 356 30 153 172 182 184 167 122 90 122 119 139 138 134 130 135 130 145 149 135 138 141 133 128
229 269 283 299 309 298 279 280 275 264 241 231 250 278 280 332 1 5 19 23 9 12 3 34 19 11 1 230 215 206 199 188 161 102 92 105 127 138 145 138 149 138 141 134 133 130 141 151 133
292 225 250 285 317 314 313 301 294 310 323 340 329 303 313 191 261 328 8 10 360 3 352 353 7 14 11 10 84 106 135 121 121 132 109 60 96 131 140 152 148 146 150 162 164 154 134 161 165
274 247 265 281 321 292 310 284 282 284 318 321 320 322 315 310 320 320 2 6 349 340 344 357 16 28 21 31 92 138 163 194 196 191 168 57 65 91 136 151 151 156 163 172 176 158 150 155 169
250 283 276 255 221 292 288 222 284 322 300 297 298 302 306 301 277 264 285 328 345 345 5 21 20 27 26 22 29 103 88 211 175 161 161 156 46 45 111 150 153 164 178 179 175 166 159 162 166
301 353 7 46 78 295 250 201 283 268 274 294 295 299 297 287 289 282 308 31 14 7 25 31 26 16 19 19 14 24 101 120 142 159 181 177 175 110 23 143 158 172 184 193 184 176 170 173 169
35 54 13 351 351 261 270 232 258 278 293 278 276 280 293 295 298 334 339 16 2 4 8 20 22 8 7 13 360 323 251 197 173 183 197 190 174 207 238 202 172 188 201 204 189 174 177 178 180
345 124 153 237 258 288 314 252 258 287 320 325 305 293 307 314 307 305 318 351 357 357 358 7 13 1 355 358 341 323 252 203 198 196 204 210 211 223 262 233 180 204 202 204 188 178 184 180 184
104 181 188 168 264 280 277 281 294 304 340 350 349 342 315 301 299 300 313 321 324 334 329 323 345 349 342 334 329 342 354 334 241 215 195 212 237 261 301 293 203 224 206 207 189 181 186 183 192
151 155 97 123 252 280 290 280 277 296 303 314 321 307 297 302 303 298 296 298 302 301 313 326 340 326 319 324 311 319 287 243 271 237 252 241 244 259 234 261 221 228 217 214 188 188 187 184 197
48 95 138 168 192 220 286 278 242 254 272 282 285 292 291 295 292 284 289 297 298 302 315 325 311 316 320 315 304 325 310 302 271 260 253 253 254 252 229 241 224 209 202 212 195 195 190 188 197
175 181 160 184 249 219 255 275 278 286 294 284 294 303 300 297 296 293 297 309 312 310 313 309 299 292 289 293 297 303 316 347 295 278 271 265 252 255 248 248 244 225 210 216 201 199 201 197 201
Height
1513 1514 1515 1517 1522 1533 1535 1530 1524 1523 1522 1522 1521 1521 1523 1527 1530 1536 1533 1531 1531 1532 1533 1534 1536 1537 1537 1538 1539 1540 1541 1541 1542 1543 1544 1544 1545 1545 1546 1547 1547 1547 1548 1548 1549 1549 1549 1549 1549
1513 1514 1517 1517 1528 1539 1535 1527 1524 1522 1522 1521 1521 1522 1524 1527 1529 1530 1530 1530 1531 1532 1532 1533 1535 1536 1537 1538 1539 1539 1540 1541 1542 1543 1544 1545 1545 1546 1546 1547 1548 1548 1549 1549 1550 1550 1550 1551 1551
1513 1514 1516 1520 1530 1534 1530 1524 1522 1521 1521 1521 1522 1524 1526 1529 1530 1530 1530 1530 1531 1531 1532 1533 1534 1535 1536 1537 1538 1539 1540 1541 1542 1543 1544 1545 1546 1546 1547 1548 1548 1549 1549 1550 1551 1551 1551 1552 1552
1513 1515 1517 1525 1528 1526 1524 1522 1521 1521 1521 1522 1523 1526 1528 1530 1530 1530 1530 1530 1531 1531 1532 1532 1533 1534 1535 1536 1537 1538 1539 1540 1541 1542 1544 1545 1546 1546 1547 1548 1548 1549 1550 1551 1551 1552 1552 1553 1553
1512 1514 1522 1529 1527 1524 1522 1521 1520 1520 1522 1523 1524 1526 1528 1530 1529 1529 1529 1530 1530 1530 1531 1532 1533 1534 1535 1536 1537 1538 1539 1540 1541 1542 1543 1544 1545 1546 1547 1548 1549 1549 1550 1551 1552 1552 1553 1554 1554
1513 1514 1527 1532 1527 1523 1522 1522 1521 1522 1523 1524 1525 1527 1528 1529 1528 1528 1528 1529 1529 1530 1530 1531 1532 1533 1534 1535 1536 1537 1538 1539 1540 1541 1542 1543 1544 1546 1547 1548 1548 1549 1550 1551 1552 1553 1553 1554 1555
1514 1519 1526 1527 1526 1524 1523 1522 1523 1524 1524 1526 1526 1527 1528 1528 1528 1528 1528 1528 1529 1529 1530 1530 1531 1532 1533 1534 1535 1536 1537 1538 1539 1540 1541 1542 1543 1545 1546 1547 1548 1549 1550 1551 1552 1553 1554 1555 1555
1514 1519 1525 1527 1526 1525 1524 1523 1524 1524 1525 1526 1526 1526 1527 1527 1527 1527 1527 1527 1528 1528 1529 1529 1530 1531 1532 1533 1533 1534 1536 1537 1538 1539 1540 1541 1543 1544 1545 1546 1547 1549 1550 1551 1552 1553 1554 1555 1555
1514 1523 1527 1526 1525 1525 1523 1523 1524 1525 1525 1525 1525 1526 1526 1526 1526 1526 1525 1526 1526 1527 1528 1528 1529 1529 1530 1531 1532 1533 1535 1536 1536 1538 1539 1540 1542 1543 1544 1545 1547 1548 1549 1551 1552 1553 1554 1555 1556
1516 1525 1524 1522 1522 1523 1523 1523 1524 1525 1524 1525 1524 1525 1525 1525 1524 1524 1523 1523 1524 1525 1526 1526 1527 1528 1529 1530 1531 1532 1533 1534 1535 1536 1537 1539 1540 1542 1543 1544 1546 1547 1549 1550 1551 1552 1553 1554 1555
1518 1523 1522 1522 1521 1522 1522 1523 1524 1524 1524 1524 1523 1522 1523 1523 1523 1522 1522 1522 1522 1523 1524 1525 1526 1526 1527 1528 1529 1530 1531 1532 1534 1535 1536 1537 1539 1540 1542 1543 1545 1546 1548 1549 1550 1551 1553 1554 1555
1520 1522 1522 1522 1521 1521 1521 1522 1523 1523 1523 1522 1521 1521 1521 1521 1521 1520 1521 1521 1521 1522 1522 1523 1524 1525 1526 1527 1528 1529 1529 1530 1532 1533 1534 1535 1537 1539 1540 1542 1544 1545 1546 1547 1549 1550 1552 1553 1554
1521 1522 1522 1522 1522 1522 1521 1522 1522 1522 1521 1521 1520 1520 1519 1519 1519 1519 1519 1519 1519 1520 1520 1521 1522 1523 1524 1525 1526 1527 1528 1529 1530 1531 1532 1534 1535 1537 1539 1541 1542 1543 1545 1546 1548 1549 1551 1552 1554
1523 1522 1523 1522 1521 1521 1521 1521 1522 1520 1520 1519 1518 1518 1518 1517 1517 1517 1517 1517 1517 1517 1518 1519 1519 1520 1522 1523 1524 1525 1526 1527 1528 1529 1530 1532 1533 1535 1537 1538 1540 1542 1544 1545 1547 1548 1549 1551 1552
1523 1524 1523 1522 1521 1521 1521 1522 1520 1519 1518 1517 1517 1517 1516 1515 1515 1514 1514 1514 1515 1515 1516 1516 1517 1518 1519 1520 1522 1523 1523 1524 1526 1527 1528 1530 1531 1533 1535 1536 1538 1540 1542 1544 1545 1547 1548 1549 1551
1525 1527 1529 1524 1522 1521 1525 1524 1519 1518 1517 1516 1515 1515 1514 1513 1512 1512 1511 1511 1512 1513 1513 1514 1515 1516 1517 1518 1519 1520 1521 1522 1523 1525 1526 1528 1529 1531 1533 1534 1536 1538 1540 1542 1544 1545 1546 1547 1549
1531 1535 1531 1526 1522 1522 1524 1523 1518 1517 1516 1514 1513 1512 1512 1511 1510 1510 1509 1510 1510 1511 1511 1512 1512 1513 1514 1515 1517 1517 1518 1520 1521 1522 1524 1526 1527 1529 1531 1532 1534 1536 1538 1540 1541 1543 1544 1546 1547
1535 1535 1532 1529 1524 1523 1523 1521 1517 1516 1515 1513 1512 1510 1510 1509 1508 1508 1508 1508 1508 1509 1509 1509 1510 1511 1512 1513 1514 1515 1516 1517 1519 1519 1521 1523 1525 1527 1528 1530 1532 1534 1535 1537 1539 1541 1543 1544 1545
1531 1532 1532 1528 1524 1524 1522 1519 1517 1514 1513 1511 1510 1509 1508 1508 1507 1507 1507 1506 1506 1507 1507 1507 1508 1509 1509 1510 1511 1512 1513 1514 1516 1517 1519 1520 1522 1524 1526 1528 1530 1532 1533 1534 1536 1539 1541 1542 1543
1530 1532 1532 1528 1523 1524 1522 1518 1515 1512 1512 1511 1509 1508 1507 1506 1505 1505 1504 1504 1505 1505 1505 1505 1505 1506 1507 1508 1509 1510 1510 1512 1513 1514 1516 1517 1519 1521 1523 1525 1527 1529 1531 1532 1534 1536 1537 1539 1540
1529 1531 1531 1530 1526 1523 1523 1518 1515 1511 1510 1510 1508 1507 1506 1505 1504 1504 1503 1503 1503 1503 1503 1503 1504 1504 1505 1505 1506 1507 1508 1509 1511 1512 1513 1514 1516 1518 1520 1522 1524 1526 1528 1530 1531 1533 1534 1536 1538
1531 1528 1528 1528 1531 1531 1527 1527 1515 1512 1510 1508 1507 1506 1504 1504 1504 1503 1502 1502 1502 1502 1502 1501 1502 1502 1503 1503 1504 1504 1504 1505 1507 1508 1510 1512 1514 1516 1518 1520 1522 1524 1526 1528 1529 1531 1532 1533 1535
1530 1527 1527 1527 1530 1533 1529 1529 1518 1514 1512 1509 1507 1505 1504 1503 1502 1502 1501 1501 1501 1501 1501 1500 1500 1500 1500 1501 1501 1501 1502 1503 1504 1506 1507 1509 1511 1512 1514 1517 1519 1521 1523 1524 1526 1528 1529 1531 1532
1528 1528 1528 1530 1533 1534 1528 1528 1520 1516 1513 1509 1506 1505 1504 1502 1501 1501 1501 1500 1500 1500 1499 1498 1498 1498 1498 1498 1498 1498 1499 1500 1501 1503 1504 1505 1507 1509 1511 1513 1515 1517 1519 1521 1523 1525 1527 1528 1530
1531 1534 1538 1538 1541 1533 1526 1526 1521 1513 1511 1509 1507 1504 1502 1501 1499 1498 1498 1498 1498 1497 1497 1496 1496 1496 1496 1496 1496 1496 1496 1497 1498 1499 1501 1501 1503 1505 1507 1509 1511 1513 1516 1518 1520 1522 1523 1525 1526
1535 1537 1542 1542 1541 1535 1529 1526 1518 1512 1510 1507 1506 1504 1502 1500 1498 1497 1496 1496 1496 1496 1495 1495 1494 1494 1494 1494 1493 1493 1493 1494 1495 1497 1498 1499 1500 1502 1504 1505 1507 1510 1512 1514 1516 1518 1520 1522 1523
1536 1540 1539 1543 1544 1545 1534 1526 1515 1511 1509 1507 1505 1503 1501 1500 1498 1497 1496 1495 1495 1494 1494 1493 1492 1492 1492 1492 1491 1491 1491 1491 1493 1494 1495 1496 1497 1499 1500 1501 1504 1506 1508 1510 1512 1514 1516 1518 1519
1537 1538 1543 1543 1540 1537 1531 1526 1518 1512 1510 1508 1506 1503 1501 1499 1498 1497 1496 1494 1494 1493 1492 1491 1490 1490 1490 1489 1489 1488 1488 1488 1489 1490 1491 1493 1494 1495 1496 1498 1500 1502 1504 1506 1508 1510 1512 1514 1515
1539 1541 1541 1543 1540 1539 1533 1523 1513 1511 1509 1508 1505 1503 1500 1498 1497 1495 1494 1493 1493 1492 1490 1489 1489 1488 1488 1487 1487 1486 1485 1486 1487 1487 1488 1489 1491 1492 1493 1495 1496 1499 1500 1502 1504 1506 1508 1509 1511
1538 1540 1542 1542 1541 1542 1538 1525 1509 1508 1507 1506 1504 1502 1500 1498 1496 1494 1493 1491 1490 1489 1488 1488 1487 1486 1485 1485 1484 1483 1483 1483 1484 1484 1485 1486 1487 1488 1489 1491 1492 1494 1496 1498 1499 1501 1503 1505 1506